Location: Heiligenberg
(48.5381°N, 7.3897°E)
Time: 23:03:37
(UTC+00:00)

Cosmos 2298 Rocket - Pass Details

Date: 26 May 2022
Orbit: 775 x 784 km, 74.0° (Epoch: 26 June)

Event Time Altitude Azimuth Distance (km) Brightness Sun altitude
Exits shadow 00:07:42 39° 175° (S) 1,149 4.4 -19.8°
Maximum altitude 00:09:34 66° 109° (ESE) 850 4.1 -19.7°
Drops below altitude 10° 00:14:49 10° 28° (NNE) 2,339 7.6 -19.6°
Sets 00:17:14 0° 26° (NNE) 3,273 8.7 -19.5°
